Weather reports worldwide

Advertisment
Great Dun Fell, United Kingdom (3227): temperature & dewpoint: 16.07.2019 03:00:00 - 22.07.2019 03:00:00 (BST)Great Dun Fell, United Kingdom (3227): wind speed & gusts: 16.07.2019 03:00:00 - 22.07.2019 03:00:00 (BST)Great Dun Fell, United Kingdom (3227): wind direction: 16.07.2019 03:00:00 - 22.07.2019 03:00:00 (BST)
Date & Time tt [°C] td [°C] ff [km/h] ff [kn] fx [km/h] fx [kn] dd
22.07.2019 03:00:00 13,4 13,4 89 48 104 56 WSW
22.07.2019 02:00:00 13,2 13,2 85 46 100 54 SW
22.07.2019 01:00:00 11,9 11,9 76 41 98 53 SW
22.07.2019 00:00:00 11,2 11,2 85 46 102 55 SSW
21.07.2019 23:00:00 10,9 10,9 72 39 91 49 SSW
21.07.2019 22:00:00 11,3 11,3 67 36 83 45 SSW
21.07.2019 21:00:00 11,4 11,4 61 33 83 45 SW
21.07.2019 20:00:00 11,2 11,2 55 30 78 42 SW
21.07.2019 19:00:00 10,9 10,9 61 33 78 42 SW
21.07.2019 18:00:00 10,8 10,8 63 34 78 42 SW
21.07.2019 17:00:00 10,8 10,8 61 33 72 39 SW
21.07.2019 16:00:00 10,6 10,6 52 28 70 38 SW
21.07.2019 15:00:00 10,5 10,5 59 32 76 41 SW
21.07.2019 14:00:00 10,8 9,2 61 33 70 38 WSW
21.07.2019 13:00:00 10,3 10,3 52 28 72 39 SW
21.07.2019 12:00:00 9,9 9,9 57 31 68 37 SW
21.07.2019 11:00:00 10,0 10,0 55 30 63 34 SW
21.07.2019 10:00:00 10,3 10,3 46 25 55 30 SW
21.07.2019 09:00:00 9,6 9,6 41 22 46 25 SW
21.07.2019 08:00:00 9,5 9,3 35 19 52 28 SW
21.07.2019 07:00:00 8,8 8,8 41 22 48 26 WSW
21.07.2019 06:00:00 8,5 8,5 42 23 55 30 WSW
21.07.2019 05:00:00 8,3 8,1 44 24 52 28 WSW
21.07.2019 04:00:00 8,0 8,0 34 18 - - WSW
21.07.2019 03:00:00 8,1 8,1 29 16 - - WSW
21.07.2019 02:00:00 7,7 7,7 29 16 - - W
21.07.2019 01:00:00 7,5 7,5 28 15 - - W
21.07.2019 00:00:00 7,6 7,6 37 20 48 26 W
20.07.2019 23:00:00 7,6 7,6 39 21 57 31 W
20.07.2019 22:00:00 8,2 7,6 54 29 65 35 W
20.07.2019 21:00:00 8,9 8,4 48 26 63 34 W
20.07.2019 20:00:00 9,8 8,1 44 24 63 34 W
20.07.2019 19:00:00 10,1 8,8 57 31 70 38 W
20.07.2019 18:00:00 10,0 9,2 55 30 68 37 W
20.07.2019 17:00:00 10,3 10,3 48 26 65 35 W
20.07.2019 16:00:00 10,8 10,8 54 29 65 35 W
20.07.2019 15:00:00 11,3 11,3 55 30 68 37 W
20.07.2019 14:00:00 11,4 11,4 37 20 59 32 W
20.07.2019 13:00:00 11,2 11,2 39 21 54 29 WNW
20.07.2019 12:00:00 11,1 11,1 21 11 - - W
20.07.2019 11:00:00 10,6 10,6 34 18 - - SW
20.07.2019 10:00:00 10,5 10,5 28 15 50 27 SSW
20.07.2019 09:00:00 10,8 10,8 39 21 55 30 SW
20.07.2019 08:00:00 10,8 10,8 42 23 52 28 SSW
20.07.2019 07:00:00 10,4 10,4 34 18 55 30 SW
20.07.2019 06:00:00 11,1 11,1 52 28 72 39 SW
20.07.2019 05:00:00 11,1 11,1 52 28 72 39 SSW
20.07.2019 04:00:00 11,5 11,5 59 32 74 40 SSW
20.07.2019 03:00:00 11,7 11,7 52 28 67 36 SSW
20.07.2019 02:00:00 11,8 11,8 44 24 68 37 SW
20.07.2019 01:00:00 11,7 11,7 57 31 76 41 SW
20.07.2019 00:00:00 11,9 11,9 54 29 78 42 SW
19.07.2019 23:00:00 11,7 11,7 52 28 72 39 SW
19.07.2019 22:00:00 11,9 11,9 61 33 83 45 WSW
19.07.2019 21:00:00 12,1 12,1 63 34 78 42 SW
19.07.2019 20:00:00 12,4 12,4 57 31 78 42 SSW
19.07.2019 19:00:00 13,0 13,0 48 26 59 32 SSW
19.07.2019 18:00:00 12,4 12,4 37 20 48 26 S
19.07.2019 17:00:00 11,5 11,5 34 18 - - S
19.07.2019 16:00:00 10,9 10,9 31 17 - - S
19.07.2019 15:00:00 10,4 10,4 29 16 46 25 S
19.07.2019 14:00:00 10,6 9,0 37 20 46 25 S
19.07.2019 13:00:00 9,4 9,2 39 21 46 25 S
19.07.2019 12:00:00 9,9 8,7 35 19 48 26 S
19.07.2019 11:00:00 9,3 8,6 34 18 48 26 SSW
19.07.2019 10:00:00 9,7 9,7 42 23 48 26 SSW
19.07.2019 09:00:00 9,7 9,7 35 19 46 25 SSW
19.07.2019 08:00:00 9,5 9,5 31 17 - - SSW
19.07.2019 07:00:00 9,3 9,3 29 16 48 26 SSW
19.07.2019 06:00:00 9,4 9,4 37 20 48 26 SSW
19.07.2019 05:00:00 9,5 9,5 37 20 48 26 SW
19.07.2019 04:00:00 9,3 9,3 35 19 - - SW
19.07.2019 03:00:00 9,0 9,0 28 15 - - SSW
19.07.2019 02:00:00 9,0 9,0 28 15 - - SSW
19.07.2019 01:00:00 8,7 8,7 15 8 - - SSW
19.07.2019 00:00:00 8,7 8,7 22 12 - - SSW
18.07.2019 23:00:00 8,8 8,8 24 13 - - SW
18.07.2019 22:00:00 8,8 8,8 29 16 - - SW
18.07.2019 21:00:00 8,9 8,8 37 20 52 28 WSW
18.07.2019 20:00:00 9,3 8,9 41 22 52 28 WSW
18.07.2019 19:00:00 9,4 8,4 50 27 55 30 WSW
18.07.2019 18:00:00 9,9 8,0 44 24 54 29 W
18.07.2019 17:00:00 10,2 7,9 48 26 57 31 W
18.07.2019 16:00:00 10,4 8,0 46 25 54 29 W
18.07.2019 15:00:00 10,3 8,0 41 22 54 29 WSW
18.07.2019 14:00:00 9,8 8,9 46 25 57 31 W
18.07.2019 13:00:00 9,2 8,1 44 24 59 32 WSW
18.07.2019 12:00:00 8,9 8,9 41 22 59 32 W
18.07.2019 11:00:00 8,5 8,5 44 24 59 32 WSW
18.07.2019 10:00:00 8,2 8,2 42 23 55 30 W
18.07.2019 09:00:00 8,0 8,0 35 19 46 25 WSW
18.07.2019 08:00:00 7,5 7,5 42 23 48 26 W
18.07.2019 07:00:00 7,2 7,2 31 17 48 26 W
18.07.2019 06:00:00 7,2 7,2 39 21 52 28 W
18.07.2019 05:00:00 7,3 7,3 29 16 - - W
18.07.2019 04:00:00 7,7 7,7 31 17 - - W
18.07.2019 03:00:00 8,4 8,4 29 16 57 31 W
18.07.2019 02:00:00 10,5 10,5 48 26 67 36 SW
18.07.2019 01:00:00 10,5 10,5 54 29 67 36 SSW
18.07.2019 00:00:00 10,4 10,4 54 29 63 34 SSW
17.07.2019 23:00:00 10,3 10,3 54 29 72 39 SW
17.07.2019 22:00:00 10,1 10,1 50 27 74 40 SSW
17.07.2019 21:00:00 10,0 10,0 61 33 83 45 SW
17.07.2019 20:00:00 10,0 10,0 61 33 74 40 SW
17.07.2019 19:00:00 10,1 10,1 57 31 74 40 SW
17.07.2019 18:00:00 9,9 9,9 61 33 81 44 SW
17.07.2019 17:00:00 10,0 10,0 61 33 78 42 SW
17.07.2019 16:00:00 10,1 10,1 65 35 76 41 SW
17.07.2019 15:00:00 10,6 10,1 63 34 76 41 SW
17.07.2019 14:00:00 11,2 9,8 61 33 78 42 SW
17.07.2019 13:00:00 11,6 9,4 59 32 68 37 SW
17.07.2019 12:00:00 10,8 9,9 46 25 55 30 SW
17.07.2019 11:00:00 10,3 9,8 44 24 50 27 SW
17.07.2019 10:00:00 10,1 10,1 37 20 46 25 SW
17.07.2019 09:00:00 9,9 9,8 41 22 46 25 SW
17.07.2019 08:00:00 9,6 9,2 35 19 - - SW
17.07.2019 07:00:00 9,8 9,8 29 16 - - SW
17.07.2019 06:00:00 9,6 9,6 29 16 - - SSW
17.07.2019 05:00:00 9,9 8,6 28 15 - - SSW
17.07.2019 04:00:00 10,0 9,7 28 15 - - SW
17.07.2019 03:00:00 9,9 9,8 24 13 - - SSW
17.07.2019 02:00:00 9,8 9,0 29 16 - - SW
17.07.2019 01:00:00 9,6 9,6 31 17 - - SW
17.07.2019 00:00:00 10,6 10,6 29 16 - - WSW
16.07.2019 23:00:00 10,8 10,8 29 16 - - WSW
16.07.2019 22:00:00 11,5 11,5 31 17 - - SW
16.07.2019 21:00:00 12,3 11,5 28 15 - - SW
16.07.2019 20:00:00 12,6 10,9 29 16 - - SW
16.07.2019 19:00:00 12,9 10,9 29 16 - - W
16.07.2019 18:00:00 13,7 9,8 31 17 - - W
16.07.2019 17:00:00 14,4 9,0 29 16 - - WSW
16.07.2019 16:00:00 14,3 8,9 31 17 46 25 SW
16.07.2019 15:00:00 13,7 9,1 31 17 50 27 WSW
16.07.2019 14:00:00 13,4 9,1 39 21 52 28 SW
16.07.2019 13:00:00 12,8 9,9 29 16 - - W
16.07.2019 12:00:00 12,9 10,1 34 18 - - WSW
16.07.2019 11:00:00 12,6 8,4 35 19 48 26 WSW
16.07.2019 10:00:00 12,5 7,6 34 18 - - WSW
16.07.2019 09:00:00 11,4 9,9 31 17 - - WSW
16.07.2019 08:00:00 10,5 9,4 29 16 - - WSW
16.07.2019 07:00:00 10,1 10,1 26 14 - - WSW
16.07.2019 06:00:00 10,1 9,8 29 16 - - WSW
16.07.2019 05:00:00 10,5 10,5 21 11 - - SW
16.07.2019 04:00:00 11,0 9,9 21 11 - - SW
16.07.2019 03:00:00 11,7 10,2 22 12 - - WSW

tt = temperature
td = dewpoint
ff = wind speed
fx = gusts
dd = wind direction

Next stations